| time (UTC) | temp C | wind direction | speed KPH | gust KPH | rain 1hr cm | rain 24hr cm | rain mn cm | humidity % | barometer mb |
| 20260503213045 | 30 | 330 | 1.6 | 9.7 | 0.00 | 0.00 | 0.00 | 32 | 1011.3 |
| 20260503211605 | 30 | 108 | 4.8 | 12.9 | 0.00 | 0.00 | 0.00 | 31 | 1011.4 |
| 20260503210046 | 29 | 94 | 1.6 | 16.1 | 0.00 | 0.00 | 0.00 | 34 | 1011.6 |
| 20260503204548 | 29 | 75 | 8.0 | 16.1 | 0.00 | 0.00 | 0.00 | 29 | 1011.8 |
| 20260503203049 | 30 | 103 | 3.2 | 12.9 | 0.00 | 0.00 | 0.00 | 32 | 1012.0 |
| 20260503201543 | 29 | 103 | 4.8 | 11.3 | 0.00 | 0.00 | 0.00 | 28 | 1012.1 |
| 20260503200054 | 29 | 98 | 4.8 | 14.5 | 0.00 | 0.00 | 0.00 | 33 | 1012.3 |
| 20260503194547 | 29 | 154 | 3.2 | 12.9 | 0.00 | 0.00 | 0.00 | 33 | 1012.5 |
| 20260503193055 | 28 | 134 | 3.2 | 12.9 | 0.00 | 0.00 | 0.00 | 36 | 1012.5 |
| 20260503191545 | 28 | 0 | 3.2 | 14.5 | 0.00 | 0.00 | 0.00 | 31 | 1012.4 |
| 20260503190050 | 28 | 0 | 1.6 | 9.7 | 0.00 | 0.00 | 0.00 | 34 | 1012.8 |
| 20260503184558 | 28 | 126 | 3.2 | 6.4 | 0.00 | 0.00 | 0.00 | 35 | 1012.9 |
| 20260503183043 | 27 | 167 | 1.6 | 8.0 | 0.00 | 0.00 | 0.00 | 34 | 1012.8 |
| 20260503181607 | 27 | 145 | 3.2 | 9.7 | 0.00 | 0.00 | 0.00 | 35 | 1013.0 |
| 20260503180106 | 27 | 62 | 3.2 | 6.4 | 0.00 | 0.00 | 0.00 | 38 | 1013.1 |
| 20260503174549 | 26 | 52 | 3.2 | 8.0 | 0.00 | 0.00 | 0.00 | 38 | 1013.1 |
| 20260503173058 | 26 | 309 | 3.2 | 8.0 | 0.00 | 0.00 | 0.00 | 45 | 1012.9 |
| 20260503171545 | 25 | 5 | 3.2 | 12.9 | 0.00 | 0.00 | 0.00 | 46 | 1013.1 |
| 20260503081544 | 12 | 0 | 0.0 | 4.8 | 0.00 | 0.00 | 0.00 | 90 | 1013.5 |
| 20260503071557 | 12 | 210 | 1.6 | 4.8 | 0.00 | 0.00 | 0.00 | 91 | 1013.6 |
| 20260503054541 | 13 | 0 | 0.0 | 4.8 | 0.00 | 0.00 | 0.00 | 88 | 1014.0 |
| 20260503053048 | 14 | 268 | 1.6 | 3.2 | 0.00 | 0.00 | 0.00 | 87 | 1013.8 |
| 20260503051544 | 14 | 300 | 1.6 | 4.8 | 0.00 | 0.00 | 0.00 | 87 | 1014.0 |
| 20260503050053 | 14 | 0 | 0.0 | 4.8 | 0.00 | 0.00 | 0.00 | 86 | 1014.2 |
| 20260503044547 | 15 | 0 | 0.0 | 4.8 | 0.00 | 0.00 | 0.00 | 86 | 1014.3 |
| 20260503043056 | 15 | 0 | 1.6 | 6.4 | 0.00 | 0.00 | 0.00 | 84 | 1014.3 |
| 20260503041545 | 15 | 162 | 3.2 | 6.4 | 0.00 | 0.00 | 0.00 | 83 | 1014.3 |
| 20260503040052 | 16 | 215 | 3.2 | 4.8 | 0.00 | 0.00 | 0.00 | 81 | 1014.0 |
| 20260503034543 | 16 | 155 | 1.6 | 4.8 | 0.00 | 0.00 | 0.00 | 79 | 1013.8 |
| 20260503033042 | 17 | 0 | 0.0 | 12.9 | 0.00 | 0.00 | 0.00 | 74 | 1013.5 |
| 20260503031542 | 17 | 39 | 1.6 | 12.9 | 0.00 | 0.00 | 0.00 | 74 | 1013.7 |
| 20260503030059 | 18 | 54 | 3.2 | 17.7 | 0.00 | 0.00 | 0.00 | 71 | 1013.5 |
| 20260503024542 | 19 | 110 | 3.2 | 9.7 | 0.00 | 0.00 | 0.00 | 72 | 1013.2 |
| 20260503023046 | 19 | 152 | 3.2 | 8.0 | 0.00 | 0.00 | 0.00 | 72 | 1012.9 |
| 20260503021543 | 20 | 159 | 4.8 | 6.4 | 0.00 | 0.00 | 0.00 | 67 | 1012.4 |
| 20260503020042 | 22 | 209 | 0.0 | 6.4 | 0.00 | 0.00 | 0.00 | 64 | 1012.5 |
| 20260503014557 | 22 | 286 | 1.6 | 4.8 | 0.00 | 0.00 | 0.00 | 57 | 1012.4 |
| 20260503013041 | 22 | 249 | 1.6 | 4.8 | 0.00 | 0.00 | 0.00 | 55 | 1012.4 |
| 20260503011548 | 22 | 0 | 0.0 | 6.4 | 0.00 | 0.00 | 0.00 | 55 | 1012.5 |
| 20260503010053 | 22 | 5 | 4.8 | 11.3 | 0.00 | 0.00 | 0.00 | 53 | 1012.7 |
| 20260503004608 | 22 | 279 | 1.6 | 12.9 | 0.00 | 0.00 | 0.00 | 57 | 1012.6 |
| 20260503003053 | 22 | 34 | 3.2 | 12.9 | 0.00 | 0.00 | 0.00 | 56 | 1012.7 |
| 20260503001541 | 22 | 272 | 6.4 | 19.3 | 0.00 | 0.00 | 0.00 | 54 | 1012.7 |
| 20260503000047 | 22 | 309 | 4.8 | 16.1 | 0.00 | 0.00 | 0.00 | 52 | 1012.9 |
| 20260502234545 | 22 | 5 | 3.2 | 12.9 | 0.00 | 0.00 | 0.00 | 56 | 1013.0 |
| 20260502233044 | 22 | 348 | 3.2 | 14.5 | 0.00 | 0.00 | 0.00 | 56 | 1013.3 |
| 20260502231542 | 22 | 301 | 3.2 | 14.5 | 0.00 | 0.00 | 0.00 | 56 | 1013.4 |
| 20260502230044 | 22 | 318 | 3.2 | 16.1 | 0.00 | 0.00 | 0.00 | 54 | 1013.4 |
| 20260502224546 | 22 | 306 | 6.4 | 14.5 | 0.00 | 0.00 | 0.00 | 53 | 1013.8 |
| 20260502223050 | 21 | 306 | 9.7 | 16.1 | 0.00 | 0.00 | 0.00 | 55 | 1014.1 |
| 20260502221547 | 21 | 298 | 6.4 | 17.7 | 0.00 | 0.00 | 0.00 | 57 | 1014.3 |
| 20260502220049 | 21 | 303 | 8.0 | 16.1 | 0.00 | 0.00 | 0.00 | 59 | 1014.5 |
| 20260502214542 | 21 | 43 | 3.2 | 12.9 | 0.00 | 0.00 | 0.00 | 57 | 1014.7 |